Showing default

CENTISPACE-1 S9, 62578

Orbit data source: Space-Track

CENTISPACE-1 S9, 62578 is a payload satellite owned by Centispace (CN) in LEO that was launched on Mon, 13 Jan 2025 UTC via a JIELONG-3 launch vehicle from the Yellow Sea Launch Area, China (YSLA). Payloads include a variety of satellites, spacecraft, and rockets equipped with specific instruments for various scientific and technological missions. These include communications satellites like Starlink; space stations such as the ISS; scientific satellites like the Hubble; Earth observation satellites from companies like Planet Labs, Umbra, and HawkEye 360; GPS; miniature CubeSats for education and research; and military/defense satellites.

Loading next visibility...
CENTISPACE-1 S9 details
Identifier
62578, 2025-007D
Orbit
LEO
Last TLE update9 hours ago
Origin
Flag of CNCentispace (CN / PRC)
ManufacturerDFH Shenzhen
MissionOperational spacecraft
Bus & MotorWK01, Unknown motor
Mass160 kg wet, 160 kg dry
Launch date (UTC)
2025-01-13 (3 weeks ago)
Launch vehicle
JIELONG-3
Launch site
Yellow Sea Launch Area, China (YSLA)
Object type
Payload
Rocket body
Debris
Shape & HBRUnknown
Radar Cross SectionLarge (>1 m²)

Expand to show TLE details & history

TLE from 9 hours ago
0 CENTISPACE-1 S9
1 62578U 25007D   25035.78750455  .00003822  00000-0  56912-3 0  9999
2 62578  54.9822  35.6001 0016437   0.4686 359.6327 14.76824803  3348
Epoch: 2025-02-04T18:54Z
Definitive object data (Epoch: 2025-02-04T18:54:00.393Z)
Latitude0.00001°
Longitude-23.08931°
Altitude628.898 km
Speed7.551 km/s
True Right ascension02h 22m 24s
True Declination0° 00' 00"
Sunlit
Object was in daylight at TLE epoch
Visualization TLE readout
Latitude-45.38963°
Longitude-159.71386°
Altitude660.931 km
Speed7.523 km/s
Apparent Right ascension17h 41m 52s
Apparent Declination-42° 47' 31"
Sunlit
Object is in daylight
Visualization observer readout
Local Sidereal Time06:08:07
Azimuth122.416° SE
Elevation-84.299°
Doppler factor1
Orbital elements
Apogee altitude650.865 km
Perigee altitude627.796 km
Semi-major axis7,017.468 km
Eccentricity0.0016437
Inclination54.9822°
RAAN35.6001°
Arg. of periapsis0.4686°
True anomaly359.63149°
Mean anomaly359.6327°
Eccentric anomaly359.6321°
Mean motion3.69209 °/min
BSTAR0.00056912
Orbital period97.51 mins
Loading maneuver chart data...
Loading historical data...
Loading historical data...
Loading historical data...
Loading historical data...
Loading historical data...
Loading historical data...
Loading historical data...

CENTISPACE-1 S9 Visibility forecast

Observer location: undefined°, undefined

Span
Click to sort rows by Start time (UTC) header in descending order
Start Az.
Max El. time (UTC)
Max El. Az.
Max El.
End time (UTC)
End Az.
5 mins2025-02-05 04:56:19.850Z306.239° NW2025-02-05 04:59:19.850Z347.394° N15.144°2025-02-05 05:01:19.850Z15.27° NNE
6 mins2025-02-05 08:22:19.850Z342.073° N2025-02-05 08:25:19.850Z37.186° NE24.154°2025-02-05 08:28:19.850Z82.757° E
7 mins2025-02-05 10:03:19.850Z303.776° NW2025-02-05 10:06:19.850Z249.689° W41.058°2025-02-05 10:10:19.850Z149.078° SSE
7 mins2025-02-06 01:56:19.850Z207.259° SW2025-02-06 01:59:19.850Z107.585° ESE40.955°2025-02-06 02:03:19.850Z53.148° ENE
6 mins2025-02-06 03:38:19.850Z288.283° WNW2025-02-06 03:40:19.850Z323.901° NNW23.78°2025-02-06 03:44:19.850Z27.735° NE
|